Flag for Portugal Weather past 2 weeks in Cascais, Portugal

Now
46 °F

Fog.


Feels Like: 45 °F
Forecast: N/A
Wind: 3 mph from East

Location: Lisbon Portela Airport

Current Time: Dec 19, 2014 at 3:12:00 PM

Latest Report: Dec 19, 2014 at 2:30 PM


Visibility: 2 mi

Pressure: 30.45 "Hg

Humidity: 100%

Dew point: 46 °F

Location of CascaisLocation

Historic Weather in Cascais — Graph

°F

Cascais temperature yesterday

Maximum temperature yesterday: 57 °F (at 12:00 PM)
Minimum temperature yesterday: 50 °F (at 3:00 AM)
Average temperature yesterday: 52 °F

Past Weeks' High & Low Weather Summary

 TemperatureHumidityPressure
High61 °F (Dec 16, 12:00 PM)100% (Dec 11, 7:30 AM)30.51 "Hg (Dec 11, 7:30 AM)
Low39 °F (Dec 19, 8:30 AM)51% (Dec 6, 1:00 PM)29.65 "Hg (Dec 13, 3:30 PM)
Average52 °F82%30.26 "Hg
* Reported Dec 4 2:00 PM — Dec 19 2:00 PM, Cascais, Weather by CustomWeather, © 2014

Note: Actual official high and low records may vary slightly from our data, if they occured in-between our weather recording intervals... More about our weather records

Advertising

Cascais weather history for previous 24 hours

 ConditionsComfort  
Time TempWeatherWind HumidityBarometerVisibility
2:00 PM
Dec 19
45 °FFog.5 mph100%30.48 "Hg1 mi
1:30 PM43 °FBroken clouds.5 mph100%30.48 "Hg1 mi
1:00 PM43 °FFog.5 mph100%30.48 "Hg0 mi
12:30 PM41 °FDense fog.6 mph100%30.51 "Hg0 mi
12:00 PM41 °FFog.7 mph100%30.51 "Hg0 mi
11:30 AM41 °FBroken clouds.6 mph100%30.51 "Hg1 mi
11:00 AM41 °FQuite cool.7 mph100%30.51 "Hg1 mi
10:30 AM39 °FMore clouds than sun.5 mph100%30.51 "Hg1 mi
10:00 AM39 °FFog.7 mph100%30.51 "Hg0 mi
9:30 AM39 °FFog.5 mph100%30.51 "Hg0 mi
9:00 AM39 °FFog.3 mph100%30.48 "Hg0 mi
8:30 AM39 °FChilly.3 mph100%30.48 "Hg2 mi
8:00 AM41 °FFog.3 mph100%30.45 "Hg3 mi
7:46 AM41 °FFog.5 mph100%30.45 "Hg3 mi
7:00 AM41 °FPassing clouds.3 mph100%30.45 "Hg5 mi
6:30 AM45 °FFog.8 mph93%30.42 "Hg6 mi
6:00 AM48 °FPassing clouds.10 mph87%30.42 "HgN/A
5:30 AM48 °FClear.10 mph87%30.42 "Hg10 mi
5:00 AM48 °FPassing clouds.9 mph87%30.42 "HgN/A
4:30 AM48 °FPassing clouds.8 mph87%30.42 "HgN/A
4:00 AM48 °FPassing clouds.9 mph87%30.42 "HgN/A
3:30 AM48 °FPassing clouds.10 mph87%30.42 "HgN/A
3:00 AM48 °FPassing clouds.10 mph87%30.42 "HgN/A
2:00 AM50 °FPassing clouds.13 mph82%30.42 "HgN/A
1:30 AM50 °FPassing clouds.14 mph82%30.42 "HgN/A
1:00 AM50 °FPassing clouds.10 mph82%30.42 "HgN/A
12:30 AM50 °FPassing clouds.10 mph82%30.45 "HgN/A
12:00 AM50 °FPassing clouds.9 mph82%30.45 "HgN/A
11:30 PM
Dec 18
50 °FPassing clouds.12 mph82%30.45 "HgN/A
11:00 PM50 °FPassing clouds.14 mph82%30.42 "HgN/A
10:30 PM50 °FPassing clouds.10 mph82%30.42 "HgN/A
10:00 PM50 °FPassing clouds.13 mph82%30.42 "HgN/A
9:00 PM50 °FPassing clouds.14 mph82%30.42 "HgN/A
8:00 PM50 °FPassing clouds.10 mph82%30.42 "HgN/A
7:30 PM50 °FPassing clouds.10 mph82%30.42 "HgN/A
7:00 PM50 °FPassing clouds.12 mph88%30.42 "HgN/A
6:30 PM50 °FPassing clouds.10 mph88%30.39 "HgN/A
6:00 PM50 °FPassing clouds.14 mph88%30.39 "HgN/A
5:30 PM52 °FPassing clouds.17 mph77%30.39 "HgN/A
5:00 PM54 °FPassing clouds.13 mph72%30.39 "HgN/A
4:30 PM54 °FPassing clouds.16 mph77%30.39 "HgN/A
4:00 PM55 °FPassing clouds.14 mph72%30.39 "HgN/A
3:00 PM57 °FPassing clouds.15 mph67%30.36 "HgN/A
Weather by CustomWeather, © 2014

See weather overviewHow to use our weather pages